Weather History for VDPP - October, 2013

Change the Weather History Date:

Tuesday, October 22, 2013

  Actual Average Record
Temperature  
Mean Temperature 86 °F -  
Max Temperature 91 °F 84 °F 91 °F (2012)
Min Temperature 80 °F 75 °F 75 °F (2001)
Cooling Degree Days 20    
Growing Degree Days 36 (Base 50)    
Moisture  
Dew Point 72 °F    
Average Humidity 63    
Maximum Humidity 79    
Minimum Humidity 46    
Precipitation  
Precipitation 0.00 in - - ()
Sea Level Pressure  
Sea Level Pressure 29.83 in    
Wind  
Wind Speed 8 mph ()    
Max Wind Speed 14 mph    
Max Gust Speed -    
Visibility 6.2 miles    
Events      
Averages and records for this station are not official NWS values.
T = Trace of Precipitation, MM = Missing Value Source: Averaged Metar Reports

Daily Weather History Graph

Daily Weather History Graph

Search for Another Location

Airport or City:

Trip Planner

Search our weather history database for the weather conditions in past years. The results will help you decide how hot, cold, wet, or windy it might be!

Date:

Astronomy

Oct. 22, 2013 Rise Set
Actual Time 5:50 AM ICT 5:39 PM ICT
Civil Twilight 5:29 AM ICT 6:00 PM ICT
Nautical Twilight 5:04 AM ICT 6:25 PM ICT
Astronomical Twilight 4:39 AM ICT 6:50 PM ICT
Moon 8:18 PM ICT (10/22) 8:26 AM ICT (10/22)
Length of Visible Light 12h 31m
Length of Day
11h 48m
Waning Gibbous, 90% of the Moon is Illuminated
Oct 22
Waning Gibbous
Oct 27
Last Quarter
Nov 3
New
Nov 10
First Quarter
Nov 17
Full

Hourly Weather History & Observations

Time (ICT) Temp. Heat Index Dew Point Humidity Pressure Visibility Wind Dir Wind Speed Gust Speed Precip Events Conditions
12:00 AM 80.6 °F 85.4 °F 73.4 °F 79% 29.83 in 6.2 mi West 3.5 mph - N/A   Scattered Clouds
12:30 AM 82.4 °F 89.5 °F 75.2 °F 79% 29.83 in 6.2 mi WNW 4.6 mph - N/A   Scattered Clouds
1:00 AM 82.4 °F 89.5 °F 75.2 °F 79% 29.80 in 6.2 mi WNW 2.3 mph - N/A   Scattered Clouds
6:00 AM 80.6 °F 83.9 °F 69.8 °F 70% 29.83 in 6.2 mi ENE 8.1 mph - N/A   Scattered Clouds
6:30 AM 80.6 °F 83.9 °F 69.8 °F 70% 29.83 in 6.2 mi NE 10.4 mph - N/A   Scattered Clouds
7:00 AM 82.4 °F 87.2 °F 71.6 °F 70% 29.86 in 6.2 mi NE 10.4 mph - N/A   Scattered Clouds
7:30 AM 84.2 °F 89.6 °F 71.6 °F 66% 29.86 in 6.2 mi ENE 11.5 mph - N/A   Scattered Clouds
8:00 AM 84.2 °F 88.4 °F 69.8 °F 62% 29.86 in 6.2 mi ENE 11.5 mph - N/A   Scattered Clouds
8:30 AM 84.2 °F 88.4 °F 69.8 °F 62% 29.89 in 6.2 mi ENE 13.8 mph - N/A   Scattered Clouds
9:00 AM 86.0 °F 90.4 °F 69.8 °F 58% 29.89 in 6.2 mi East 12.7 mph - N/A   Scattered Clouds
9:30 AM 86.0 °F 90.4 °F 69.8 °F 58% 29.89 in 6.2 mi ENE 13.8 mph - N/A   Scattered Clouds
10:00 AM 86.0 °F 90.4 °F 69.8 °F 58% 29.89 in 6.2 mi ENE 11.5 mph - N/A   Scattered Clouds
10:30 AM 87.8 °F 92.6 °F 69.8 °F 55% 29.89 in 6.2 mi ENE 10.4 mph - N/A   Scattered Clouds
11:00 AM 87.8 °F 92.6 °F 69.8 °F 55% 29.86 in 6.2 mi NE 9.2 mph - N/A   Scattered Clouds
11:30 AM 87.8 °F 92.6 °F 69.8 °F 55% 29.86 in 6.2 mi NNE 12.7 mph - N/A   Scattered Clouds
12:00 PM 89.6 °F 93.4 °F 68.0 °F 49% 29.83 in 6.2 mi NE 13.8 mph - N/A   Scattered Clouds
12:30 PM 89.6 °F 94.7 °F 69.8 °F 52% 29.83 in 6.2 mi NE 11.5 mph - N/A   Scattered Clouds
1:00 PM 89.6 °F 93.4 °F 68.0 °F 49% 29.80 in 6.2 mi NE 11.5 mph - N/A   Scattered Clouds
1:30 PM 89.6 °F 93.4 °F 68.0 °F 49% 29.80 in 6.2 mi North 8.1 mph - N/A   Scattered Clouds
2:00 PM 91.4 °F 95.4 °F 68.0 °F 46% 29.77 in 6.2 mi NE 12.7 mph - N/A   Scattered Clouds
2:30 PM 89.6 °F 94.7 °F 69.8 °F 52% 29.77 in 6.2 mi NE 13.8 mph - N/A   Scattered Clouds
3:00 PM 89.6 °F 94.7 °F 69.8 °F 52% 29.77 in 6.2 mi NE 13.8 mph - N/A   Scattered Clouds
3:30 PM 91.4 °F 96.8 °F 69.8 °F 49% 29.77 in 6.2 mi NNE 11.5 mph - N/A   Scattered Clouds
4:00 PM 89.6 °F 94.7 °F 69.8 °F 52% 29.77 in 6.2 mi NE 11.5 mph - N/A   Scattered Clouds
4:30 PM 89.6 °F 94.7 °F 69.8 °F 52% 29.77 in 6.2 mi NNE 10.4 mph - N/A   Scattered Clouds
5:00 PM 89.6 °F 96.2 °F 71.6 °F 55% 29.77 in 6.2 mi North 6.9 mph - N/A   Partly Cloudy
5:30 PM 87.8 °F 95.6 °F 73.4 °F 62% 29.77 in 6.2 mi North 6.9 mph - N/A   Partly Cloudy
6:00 PM 86.0 °F 93.4 °F 73.4 °F 66% 29.77 in 6.2 mi North 4.6 mph - N/A   Partly Cloudy
6:30 PM 86.0 °F 93.4 °F 73.4 °F 66% 29.80 in 6.2 mi NNW 4.6 mph - N/A   Partly Cloudy
7:00 PM 86.0 °F 93.4 °F 73.4 °F 66% 29.80 in 6.2 mi North 4.6 mph - N/A   Partly Cloudy
7:30 PM 86.0 °F 93.4 °F 73.4 °F 66% 29.80 in 6.2 mi NNW 5.8 mph - N/A   Partly Cloudy
8:00 PM 86.0 °F 93.4 °F 73.4 °F 66% 29.83 in 6.2 mi NNW 4.6 mph - N/A   Partly Cloudy
8:30 PM 84.2 °F 92.3 °F 75.2 °F 74% 29.83 in 6.2 mi NNW 4.6 mph - N/A   Partly Cloudy
9:00 PM 84.2 °F 90.9 °F 73.4 °F 70% 29.83 in 6.2 mi NNW 4.6 mph - N/A   Partly Cloudy
9:30 PM 84.2 °F 92.3 °F 75.2 °F 74% 29.83 in 6.2 mi NNW 4.6 mph - N/A   Partly Cloudy
10:00 PM 84.2 °F 92.3 °F 75.2 °F 74% 29.86 in 6.2 mi NNW 3.5 mph - N/A   Partly Cloudy
10:30 PM 84.2 °F 92.3 °F 75.2 °F 74% 29.86 in 6.2 mi North 4.6 mph - N/A   Partly Cloudy
11:00 PM 84.2 °F 92.3 °F 75.2 °F 74% 29.86 in 6.2 mi North 4.6 mph - N/A   Scattered Clouds
11:30 PM 84.2 °F 92.3 °F 75.2 °F 74% 29.86 in 6.2 mi North 3.5 mph - N/A   Scattered Clouds